sat.trackr.live / text

‹ back to catalog

STARLINK-11397 [DTC]

NORAD 62590 · 2025-008D

PAYLOAD ACTIVE UNKNOWN

§ Identity

Operator
Country
US
Launch date
2025-01-13
Launch site
AFETR
Launch vehicle
Mass (kg)
RCS (m²)

Purposes: comms

External: N2YO · Heavens-Above · Gunter

§ Orbital elements

Epoch: 2026-09-21T14:47:29.032800Z

Period
91.67 min
Inclination
42.9997°
Eccentricity
0.0001354
Mean motion
15.70856349 rev/d
Perigee alt
355.5 km
Apogee alt
357.4 km
Semi-major
6,734.6 km
B*
1.1851e-3
RAAN
24.7159°
Arg perigee
246.1518°
Mean anomaly
113.9208°
Rev number
9,804

§ Raw data

STARLINK-11397 [DTC]1 62590U 25008D   26264.61630825  .00154580  00000+0  11851-2 0  99982 62590  42.9997  24.7159 0001354 246.1518 113.9208 15.70856349 98045

JSON: /api/v1/satellites/62590 · /tle

For live sub-satellite position, see the globe view (requires WebGL).

§ Visibility from observer

Set your observer location to see the next 7 days of passes ≥ 10°. The values pass through the URL so the page stays shareable.

No JS? Fill the form by hand. The geolocation button needs JavaScript.